When you browse on this site, cookies collect data to enhance your experience and personalize the content and advertising you see.
Visit our Privacy Policy to learn more. By continuing to use the site, you agree to this use of cookies and data.
  • In Portugal
  • List of Countries
  • For 7 days
  • Water Temperature
  • Satellite Maps
  • Weather Map
  • Weather Widgets
  • user-avatar
    Login

    Hourly Weather Zaafrana

    Today, 22 May, Wednesday

    Time Temperature Precipitation Wind Pressure Humidity
    00:00 +31°C° 0 mm 3 mps 746 mmHg 28%
    01:00 +31°C° 0 mm 3 mps 746 mmHg 30%
    02:00 +30°C° 0 mm 3 mps 746 mmHg 31%
    03:00 +30°C° 0 mm 3 mps 746 mmHg 30%
    04:00 +29°C° 0 mm 3 mps 746 mmHg 28%
    05:00 +29°C° 0 mm 3 mps 746 mmHg 27%
    06:00 +31°C° 0 mm 3 mps 746 mmHg 24%
    07:00 +34°C° 0 mm 4 mps 746 mmHg 20%
    08:00 +36°C° 0 mm 4 mps 746 mmHg 16%
    09:00 +37°C° 0 mm 4 mps 746 mmHg 14%
    10:00 +40°C° 0 mm 4 mps 746 mmHg 12%
    11:00 +41°C° 0 mm 4 mps 746 mmHg 10%
    12:00 +42°C° 0 mm 3 mps 745 mmHg 9%
    13:00 +43°C° 0 mm 3 mps 745 mmHg 8%
    14:00 +44°C° 0 mm 3 mps 745 mmHg 7%
    15:00 +44°C° 0 mm 3 mps 744 mmHg 7%
    16:00 +42°C° 0 mm 2 mps 744 mmHg 7%
    17:00 +42°C° 0 mm 2 mps 744 mmHg 7%
    18:00 +40°C° 0 mm 2 mps 744 mmHg 8%
    19:00 +39°C° 0 mm 1 mps 744 mmHg 9%
    20:00 +36°C° 0 mm 1 mps 744 mmHg 10%
    21:00 +36°C° 0 mm 2 mps 744 mmHg 11%
    22:00 +36°C° 0 mm 3 mps 745 mmHg 12%
    23:00 +35°C° 0 mm 3 mps 745 mmHg 12%

    Tomorrow, 23 May, Thursday

    Time Temperature Precipitation Wind Pressure Humidity
    00:00 +35°C° 0 mm 3 mps 745 mmHg 14%
    01:00 +34°C° 0 mm 3 mps 744 mmHg 15%
    02:00 +33°C° 0 mm 3 mps 744 mmHg 17%
    03:00 +32°C° 0 mm 2 mps 744 mmHg 17%
    04:00 +31°C° 0 mm 2 mps 744 mmHg 17%
    05:00 +31°C° 0 mm 2 mps 744 mmHg 17%
    06:00 +34°C° 0 mm 2 mps 744 mmHg 14%
    07:00 +36°C° 0 mm 2 mps 744 mmHg 12%
    08:00 +37°C° 0 mm 1 mps 744 mmHg 9%
    09:00 +40°C° 0 mm 2 mps 744 mmHg 9%
    10:00 +41°C° 0 mm 2 mps 744 mmHg 8%
    11:00 +43°C° 0 mm 2 mps 744 mmHg 7%
    12:00 +43°C° 0 mm 2 mps 744 mmHg 7%
    13:00 +45°C° 0 mm 3 mps 743 mmHg 7%
    14:00 +45°C° 0 mm 3 mps 742 mmHg 7%
    15:00 +45°C° 0 mm 3 mps 742 mmHg 7%
    16:00 +44°C° 0 mm 4 mps 741 mmHg 7%
    17:00 +44°C° 0 mm 4 mps 741 mmHg 8%
    18:00 +42°C° 0 mm 3 mps 741 mmHg 9%
    19:00 +40°C° 0 mm 3 mps 742 mmHg 11%
    20:00 +38°C° 0 mm 2 mps 742 mmHg 12%
    21:00 +37°C° 0 mm 2 mps 742 mmHg 12%
    22:00 +37°C° 0 mm 2 mps 742 mmHg 13%
    23:00 +35°C° 0 mm 1 mps 742 mmHg 13%

    Day after tomorrow, 24 May, Friday

    Time Temperature Precipitation Wind Pressure Humidity
    00:00 +34°C° 0 mm 1 mps 742 mmHg 13%
    01:00 +34°C° 0 mm 1 mps 742 mmHg 13%
    02:00 +33°C° 0 mm 1 mps 741 mmHg 13%
    03:00 +33°C° 0 mm 1 mps 741 mmHg 13%
    04:00 +32°C° 0 mm 1 mps 741 mmHg 13%
    05:00 +32°C° 0 mm 1 mps 741 mmHg 13%
    06:00 +34°C° 0 mm 1 mps 741 mmHg 12%
    07:00 +37°C° 0 mm 1 mps 742 mmHg 10%
    08:00 +40°C° 0 mm 1 mps 742 mmHg 8%
    09:00 +41°C° 0 mm 2 mps 742 mmHg 8%
    10:00 +43°C° 0 mm 2 mps 742 mmHg 7%
    11:00 +45°C° 0 mm 3 mps 742 mmHg 6%
    12:00 +45°C° 0 mm 3 mps 742 mmHg 6%
    13:00 +46°C° 0 mm 3 mps 741 mmHg 6%
    14:00 +46°C° 0 mm 3 mps 741 mmHg 6%
    15:00 +46°C° 0 mm 3 mps 740 mmHg 6%
    16:00 +45°C° 0 mm 3 mps 740 mmHg 7%
    17:00 +45°C° 0 mm 3 mps 740 mmHg 7%
    18:00 +43°C° 0 mm 3 mps 741 mmHg 9%
    19:00 +40°C° 0 mm 3 mps 741 mmHg 11%
    20:00 +39°C° 0 mm 3 mps 741 mmHg 12%
    21:00 +38°C° 0 mm 2 mps 742 mmHg 14%
    22:00 +37°C° 0 mm 2 mps 742 mmHg 15%
    23:00 +35°C° 0 mm 1 mps 743 mmHg 16%

    25 May, Saturday

    Time Temperature Precipitation Wind Pressure Humidity
    00:00 +35°C° 0 mm 2 mps 742 mmHg 19%
    01:00 +34°C° 0 mm 3 mps 742 mmHg 23%
    02:00 +33°C° 0 mm 3 mps 742 mmHg 26%
    03:00 +32°C° 0 mm 4 mps 743 mmHg 32%
    04:00 +30°C° 0 mm 4 mps 743 mmHg 38%
    05:00 +29°C° 0 mm 4 mps 743 mmHg 44%
    06:00 +30°C° 0 mm 4 mps 744 mmHg 42%
    07:00 +32°C° 0 mm 4 mps 744 mmHg 39%
    08:00 +33°C° 0 mm 5 mps 745 mmHg 37%
    09:00 +34°C° 0 mm 4 mps 745 mmHg 34%
    10:00 +35°C° 0 mm 4 mps 745 mmHg 30%
    11:00 +37°C° 0 mm 4 mps 745 mmHg 26%
    12:00 +38°C° 0 mm 4 mps 744 mmHg 24%
    13:00 +40°C° 0 mm 4 mps 744 mmHg 22%
    14:00 +41°C° 0 mm 4 mps 743 mmHg 20%
    15:00 +40°C° 0 mm 4 mps 743 mmHg 21%
    16:00 +40°C° 0 mm 4 mps 743 mmHg 21%
    17:00 +40°C° 0 mm 4 mps 743 mmHg 22%
    18:00 +37°C° 0 mm 4 mps 743 mmHg 24%
    19:00 +36°C° 0 mm 4 mps 743 mmHg 27%
    20:00 +34°C° 0 mm 4 mps 744 mmHg 30%
    21:00 +33°C° 0 mm 4 mps 744 mmHg 33%
    22:00 +32°C° 0 mm 4 mps 744 mmHg 35%
    23:00 +30°C° 0 mm 4 mps 744 mmHg 38%

    26 May, Sunday

    Time Temperature Precipitation Wind Pressure Humidity
    00:00 +30°C° 0 mm 4 mps 744 mmHg 38%
    01:00 +29°C° 0 mm 4 mps 744 mmHg 39%
    02:00 +29°C° 0 mm 4 mps 743 mmHg 40%
    03:00 +28°C° 0 mm 4 mps 744 mmHg 42%
    04:00 +28°C° 0 mm 4 mps 744 mmHg 43%
    05:00 +27°C° 0 mm 3 mps 744 mmHg 45%
    06:00 +28°C° 0 mm 3 mps 744 mmHg 42%
    07:00 +30°C° 0 mm 3 mps 744 mmHg 39%
    08:00 +31°C° 0 mm 3 mps 744 mmHg 36%
    09:00 +33°C° 0 mm 3 mps 744 mmHg 32%
    10:00 +35°C° 0 mm 3 mps 744 mmHg 28%
    11:00 +36°C° 0 mm 3 mps 743 mmHg 25%
    12:00 +37°C° 0 mm 3 mps 743 mmHg 23%
    13:00 +38°C° 0 mm 3 mps 742 mmHg 21%
    14:00 +39°C° 0 mm 3 mps 742 mmHg 19%
    15:00 +40°C° 0 mm 4 mps 742 mmHg 19%
    16:00 +39°C° 0 mm 5 mps 742 mmHg 19%
    17:00 +39°C° 0 mm 5 mps 742 mmHg 20%
    18:00 +36°C° 0 mm 5 mps 742 mmHg 22%
    19:00 +35°C° 0 mm 5 mps 742 mmHg 25%
    20:00 +33°C° 0 mm 5 mps 743 mmHg 27%
    21:00 +32°C° 0 mm 4 mps 743 mmHg 29%
    22:00 +30°C° 0 mm 4 mps 743 mmHg 30%
    23:00 +29°C° 0 mm 4 mps 743 mmHg 32%

    27 May, Monday

    Time Temperature Precipitation Wind Pressure Humidity
    00:00 +29°C° 0 mm 4 mps 743 mmHg 33%
    01:00 +28°C° 0 mm 4 mps 743 mmHg 34%
    02:00 +28°C° 0 mm 3 mps 743 mmHg 36%
    03:00 +27°C° 0 mm 3 mps 743 mmHg 38%
    04:00 +26°C° 0 mm 3 mps 743 mmHg 40%
    05:00 +26°C° 0 mm 3 mps 743 mmHg 42%
    06:00 +27°C° 0 mm 3 mps 743 mmHg 36%
    07:00 +29°C° 0 mm 3 mps 743 mmHg 31%
    08:00 +30°C° 0 mm 3 mps 744 mmHg 26%
    09:00 +31°C° 0 mm 3 mps 743 mmHg 23%
    10:00 +34°C° 0 mm 3 mps 743 mmHg 19%
    11:00 +35°C° 0 mm 3 mps 743 mmHg 16%
    12:00 +36°C° 0 mm 4 mps 742 mmHg 14%
    13:00 +37°C° 0 mm 4 mps 742 mmHg 13%
    14:00 +38°C° 0 mm 4 mps 742 mmHg 12%
    15:00 +38°C° 0 mm 4 mps 742 mmHg 12%
    16:00 +37°C° 0 mm 5 mps 741 mmHg 12%
    17:00 +37°C° 0 mm 5 mps 741 mmHg 13%
    18:00 +36°C° 0 mm 5 mps 742 mmHg 16%
    19:00 +34°C° 0 mm 4 mps 742 mmHg 19%
    20:00 +33°C° 0 mm 4 mps 742 mmHg 23%
    21:00 +32°C° 0 mm 4 mps 742 mmHg 26%
    22:00 +30°C° 0 mm 4 mps 743 mmHg 29%
    23:00 +29°C° 0 mm 3 mps 743 mmHg 33%
    Show more